Theta_e
327 327 331 331 331 331 333 333 333 332 331 334 340 341 341 338 339 344 344 341 335 331 335 341 340 340 336 337 336 333 335 332 331 331 331 332 330 327 325 323 326 328 329 328
328 330 331 332 331 333 333 334 333 331 331 335 338 340 341 338 335 334 335 336 334 334 341 341 341 339 337 337 336 329 330 334 333 332 333 331 328 326 323 324 325 325 326 326
328 330 331 330 330 332 332 330 330 330 330 331 338 341 341 339 337 336 335 336 332 333 343 341 339 338 338 336 333 335 334 335 335 333 332 330 327 325 322 323 323 321 325 323
329 331 330 331 331 330 333 331 330 331 330 330 331 332 339 338 336 336 332 337 336 333 337 334 336 337 337 337 336 336 333 332 330 328 326 326 324 322 322 322 324 323 323 323
327 332 330 331 332 330 333 332 330 330 330 330 333 333 340 337 337 334 338 344 342 334 339 338 337 336 336 333 333 331 328 328 327 325 324 323 323 322 323 324 324 322 322 321
325 325 328 329 330 331 331 331 328 326 326 331 335 333 337 338 337 334 337 339 340 337 334 336 335 335 332 333 330 329 331 330 326 325 321 322 325 324 325 323 321 321 318 317
325 325 327 331 331 329 328 328 330 332 333 332 335 338 338 338 335 332 335 336 335 335 337 334 331 331 332 333 332 332 330 327 326 322 325 326 323 325 322 318 316 316 316 316
329 331 332 331 330 330 331 329 331 341 340 338 338 343 341 337 335 333 333 333 333 332 336 337 334 332 333 333 331 330 325 323 324 325 319 324 320 318 317 315 314 313 311 310
331 333 335 332 332 330 332 333 331 338 340 341 341 341 336 336 336 334 331 333 333 330 330 327 326 326 332 332 328 323 320 320 319 321 318 316 315 314 312 310 308 308 308 307
334 338 336 334 334 333 332 333 340 339 344 346 343 341 340 338 336 337 336 331 332 330 328 325 326 326 325 325 322 320 321 321 317 315 313 312 311 310 308 308 308 308 309 307
336 335 335 335 335 335 336 336 335 334 336 337 340 341 333 335 334 336 335 333 332 330 327 325 324 324 323 322 322 319 317 314 313 312 312 311 310 309 309 309 310 310 308 309
337 338 340 338 335 334 334 336 332 334 337 339 339 340 336 333 331 330 335 333 330 330 328 325 325 323 320 321 319 316 314 313 312 311 311 310 310 310 310 311 309 309 310 306
335 337 340 334 334 336 337 335 333 331 331 338 339 337 333 333 330 323 326 322 330 329 325 320 318 315 318 317 315 314 313 312 312 312 311 310 310 310 312 310 308 307 307 307
335 338 339 341 337 338 339 339 336 333 334 335 338 341 337 333 328 321 322 320 319 319 317 314 314 316 316 315 314 313 312 312 312 311 311 311 311 312 310 309 307 307 305 306
335 339 340 339 339 340 340 340 338 340 337 340 338 340 335 330 319 317 319 320 320 317 315 314 314 313 315 314 313 313 312 312 312 311 311 311 311 311 309 307 307 306 305 307
332 336 339 342 337 335 341 341 340 340 337 336 338 334 330 326 316 317 316 317 317 315 315 313 313 314 313 314 313 312 312 312 312 312 312 313 312 310 309 308 308 307 306 307
335 338 339 342 337 339 343 342 340 338 336 334 332 327 323 318 318 316 315 315 315 315 315 314 313 313 314 314 313 313 312 312 312 312 313 313 311 310 309 309 309 307 307 307
337 338 334 338 340 346 337 339 338 338 337 334 326 321 318 317 317 315 313 313 316 316 315 314 314 314 314 314 313 313 313 313 313 313 313 312 311 311 309 309 308 307 307 308
335 336 335 340 339 338 338 340 342 340 334 331 325 321 319 319 318 318 317 315 314 314 314 314 314 314 315 314 314 314 314 314 313 314 314 313 312 312 310 310 309 308 308 309
335 334 339 339 341 345 342 336 336 338 336 325 322 321 319 318 321 319 317 316 314 315 316 316 316 315 314 314 314 314 314 314 314 314 314 314 312 312 312 311 310 309 308 309
338 334 339 341 339 342 338 336 336 340 334 326 323 322 320 319 318 316 314 314 315 316 317 317 316 316 316 315 315 314 314 314 314 314 314 314 312 312 312 312 312 310 309 310
339 337 333 335 341 341 335 336 338 335 328 324 321 319 318 318 319 317 314 313 314 315 316 317 316 316 316 316 315 315 314 314 314 314 315 314 312 312 312 312 313 311 309 309
333 332 332 335 337 331 333 333 328 323 320 322 320 319 318 318 318 318 315 313 314 316 317 317 316 317 317 315 316 315 315 314 314 315 315 315 313 312 311 311 312 311 309 309
333 331 333 335 335 331 330 324 319 320 320 319 319 318 316 316 315 315 313 312 313 316 316 318 318 318 318 317 316 315 316 315 315 315 314 314 314 313 312 312 311 310 310 309
332 333 335 336 330 326 324 321 318 318 318 319 318 317 316 314 314 313 313 313 315 316 317 318 318 317 318 319 318 318 317 316 315 314 314 314 314 313 312 313 312 312 313 310
331 333 334 336 329 324 324 323 320 320 320 319 319 319 319 317 315 314 314 316 316 318 320 321 321 320 321 320 319 319 319 318 317 315 314 313 314 313 313 313 313 313 313 310
Wind_Speed
3 6 1 4 2 7 5 4 5 12 11 1 7 4 4 6 5 7 9 7 7 4 11 7 18 22 21 15 19 23 22 23 20 18 13 7 4 2 3 7 16 27 23 17
6 4 5 4 7 10 11 9 8 7 6 5 9 4 6 5 5 4 8 8 6 0 3 9 13 21 27 30 29 29 20 20 19 17 12 7 2 9 10 18 20 25 20 19
5 7 5 5 6 7 9 7 5 7 3 5 8 3 3 6 6 7 10 8 5 9 11 10 12 23 28 25 27 11 16 17 14 16 8 5 3 11 19 20 20 29 22 18
5 7 6 2 8 3 4 11 9 8 2 4 3 3 5 4 7 5 5 7 3 7 10 8 11 14 13 19 14 12 13 13 11 11 11 10 12 15 17 12 15 5 0 4
12 7 6 6 19 14 9 10 14 8 4 3 4 5 6 5 6 7 8 7 9 8 11 7 9 16 15 14 12 16 17 12 5 8 7 7 7 14 13 15 9 10 7 8
11 6 8 11 14 7 13 4 6 3 4 2 3 4 4 2 4 3 3 8 8 7 8 9 14 15 14 12 14 11 6 5 4 9 5 3 8 12 12 11 7 11 12 13
5 6 4 2 2 4 3 4 3 4 4 3 3 2 6 6 7 2 7 5 6 6 8 8 8 11 11 7 8 9 8 7 8 7 2 4 7 2 2 11 13 14 15 16
4 5 1 2 4 2 1 5 4 4 2 4 1 4 5 4 7 11 12 8 6 8 8 8 8 9 9 10 9 8 9 7 3 2 5 7 11 11 11 11 10 11 13 17
1 3 2 2 4 7 2 4 5 5 2 2 3 4 7 3 7 13 13 7 8 7 9 9 11 12 11 12 12 9 5 4 4 11 14 14 11 9 9 10 12 11 12 17
4 4 4 3 3 3 4 8 4 1 5 4 2 2 5 4 6 8 6 8 7 6 7 7 11 16 16 16 12 6 2 15 17 14 10 8 6 7 11 10 9 11 15 21
5 4 7 5 4 3 1 2 5 4 2 5 4 5 7 6 4 9 8 8 9 8 8 10 13 21 20 14 11 16 21 18 14 10 6 4 5 9 11 14 13 16 22 19
1 3 1 4 5 1 3 3 5 4 4 2 3 5 5 8 2 9 9 9 9 12 11 8 14 13 13 15 21 19 17 15 12 7 3 7 8 11 13 10 13 18 18 20
3 1 3 7 6 3 2 2 3 4 3 5 5 5 4 4 4 7 11 9 12 11 7 6 8 11 20 22 19 18 15 12 8 3 5 7 11 13 8 8 14 15 16 20
6 4 6 7 7 4 5 5 6 6 3 3 6 4 4 6 6 6 6 9 9 10 8 7 8 13 20 22 20 17 13 8 3 5 8 12 12 8 4 9 11 14 19 23
4 3 4 4 10 8 7 7 11 7 12 6 6 9 12 9 9 7 7 7 7 6 8 8 8 10 17 17 15 12 10 7 1 7 12 14 12 4 5 8 11 17 19 23
4 2 1 3 4 12 12 13 14 15 10 2 8 1 6 5 5 6 8 9 7 8 8 7 6 10 12 15 15 12 8 6 4 9 14 12 9 4 7 7 13 16 18 23
2 1 1 4 4 7 5 6 5 2 5 6 5 6 6 6 7 8 8 8 9 8 7 9 9 14 14 16 15 11 8 6 6 11 12 6 7 3 7 9 13 15 19 22
1 3 0 2 3 1 3 2 9 5 2 4 2 6 10 9 6 6 4 8 8 8 7 7 11 11 12 12 13 10 10 7 6 12 8 11 7 3 6 8 12 13 17 19
2 2 2 1 2 5 2 7 4 5 4 4 3 5 5 7 7 7 4 4 6 7 9 11 12 11 11 12 13 12 11 10 11 13 12 13 9 6 6 9 12 14 15 17
3 3 1 1 3 1 3 3 7 11 2 3 7 4 6 4 3 4 4 7 8 14 12 10 11 11 12 15 15 14 14 13 13 14 15 12 11 9 8 11 13 14 16 18
3 2 2 2 2 3 5 1 5 2 3 2 3 3 3 3 5 5 7 6 16 17 13 10 12 15 18 16 19 18 18 18 18 15 16 12 13 12 12 12 16 15 15 16
2 1 2 2 2 1 5 1 2 5 2 2 4 4 6 5 4 4 7 7 10 12 14 17 18 21 21 20 21 23 22 23 20 17 16 14 13 13 13 12 17 17 14 14
2 4 2 4 4 4 7 3 4 5 3 2 4 2 6 5 3 2 7 8 12 19 22 23 23 24 25 24 24 27 27 23 21 20 19 17 16 13 12 14 16 18 15 14
2 2 3 6 3 5 4 2 4 4 4 3 4 6 7 6 7 7 7 8 10 18 21 24 20 21 26 27 27 30 27 23 22 21 21 19 18 17 13 14 17 20 20 18
2 2 4 5 6 6 4 2 5 5 4 2 3 7 8 8 7 8 7 8 13 18 19 19 19 21 22 24 26 28 28 25 24 23 22 22 21 20 18 16 18 19 20 19
3 5 4 2 6 5 3 9 7 6 7 7 5 7 7 5 8 7 7 13 13 9 14 13 14 17 20 22 26 27 28 27 27 26 25 25 24 24 22 20 20 20 18 18
Wind_Direction
322 68 70 280 237 188 197 257 280 285 286 105 105 91 312 318 302 291 300 317 91 122 206 172 188 163 164 190 152 148 219 206 200 213 207 196 113 42 320 328 297 296 272 236
343 128 218 300 357 353 323 312 294 285 310 112 125 150 228 263 279 287 292 290 140 84 79 156 144 155 162 167 171 174 222 215 217 209 196 166 163 261 280 277 265 300 270 238
190 215 228 38 317 290 276 222 244 238 360 60 144 154 243 244 259 258 257 261 193 174 141 146 127 150 164 148 165 211 197 201 190 197 207 153 186 200 264 265 272 297 254 244
186 215 195 228 322 278 280 256 265 281 37 263 157 254 318 336 313 256 338 267 203 165 129 143 146 165 121 158 161 166 160 158 158 160 160 172 204 210 264 284 319 20 17 287
240 207 223 187 235 252 237 268 267 275 217 117 352 84 271 347 337 343 22 8 34 106 128 141 126 127 150 142 151 144 140 140 158 175 154 196 207 240 267 291 304 337 342 344
236 210 173 214 241 261 267 254 335 46 92 20 309 127 267 285 267 299 40 37 42 73 96 103 116 140 123 122 134 144 169 175 171 160 142 177 246 263 289 297 337 359 358 2
302 272 338 132 122 316 45 79 338 355 22 234 261 32 234 256 267 352 138 62 16 47 68 81 85 98 113 118 149 154 149 134 143 151 144 309 326 336 72 30 18 6 347 336
190 335 155 192 140 180 32 128 160 220 175 256 106 231 246 230 313 95 93 108 95 78 88 85 95 120 140 140 133 135 131 134 148 83 36 105 105 85 66 53 31 356 335 332
122 270 283 152 162 119 198 75 132 100 330 246 179 262 303 45 39 110 121 152 118 118 123 133 146 139 137 146 153 151 129 96 86 111 107 94 79 64 36 357 343 343 327 324
11 352 322 216 77 7 162 146 83 337 177 231 245 258 230 202 157 131 142 151 143 146 149 148 172 175 171 167 161 140 172 117 116 111 101 86 53 25 360 351 326 310 307 311
21 112 303 18 351 240 36 98 61 128 146 176 179 251 207 216 198 174 182 157 158 169 177 186 190 190 184 177 171 129 124 121 117 115 103 47 19 355 334 311 305 305 310 313
281 121 47 269 268 337 284 155 133 137 233 251 172 263 196 192 213 174 170 171 179 178 193 192 192 192 180 157 137 143 129 122 124 119 46 359 342 309 301 302 312 318 317 323
170 158 340 336 334 315 118 178 152 133 108 197 160 257 208 193 228 192 160 168 180 193 202 188 172 148 142 139 140 141 138 133 125 40 354 321 303 302 297 307 317 325 330 330
143 172 172 226 235 238 270 227 186 163 164 200 227 181 186 194 198 180 161 153 164 175 162 151 139 152 149 150 150 150 146 140 99 343 307 299 306 296 274 308 328 344 348 338
128 202 173 246 287 233 239 276 263 255 246 211 230 175 199 186 177 171 161 159 154 134 144 151 151 164 157 156 157 156 156 158 285 297 294 294 310 204 299 325 348 355 354 346
357 265 156 248 18 345 302 237 247 257 258 332 161 200 165 165 151 152 151 153 162 179 170 149 157 160 172 170 170 168 168 193 261 287 300 309 186 239 327 332 350 346 352 348
164 136 244 265 355 352 322 303 265 305 73 140 160 213 142 148 171 168 182 166 169 166 144 148 160 171 173 174 176 183 187 205 278 299 324 204 207 296 341 342 332 337 347 340
203 159 101 274 10 86 124 336 23 312 71 305 157 161 156 171 196 199 176 147 145 144 139 154 160 170 178 185 192 194 201 222 281 291 301 204 223 307 330 334 330 330 342 336
162 141 101 105 325 306 45 44 21 334 1 243 180 149 115 109 69 20 117 121 138 138 144 157 166 177 195 203 210 213 218 240 265 282 287 233 241 286 311 327 312 326 324 327
40 57 53 105 249 75 321 287 8 315 310 79 111 120 143 129 111 241 155 129 134 139 148 170 182 189 212 224 221 219 228 243 260 276 284 260 242 273 285 318 306 308 315 318
340 11 159 160 215 261 255 229 173 32 242 330 111 134 139 126 196 185 167 174 165 164 179 197 210 224 240 244 223 229 241 241 256 266 270 257 245 266 291 306 303 298 315 312
261 174 205 254 243 94 158 214 161 206 295 67 86 121 105 118 115 176 196 183 185 192 205 215 220 232 243 241 230 237 242 256 259 261 256 252 244 263 278 300 298 286 304 295
321 187 214 197 236 272 170 235 223 170 125 65 112 111 124 133 158 125 191 203 214 213 217 226 230 239 243 243 234 236 250 258 257 256 249 249 244 261 276 294 288 276 287 283
301 314 29 353 310 230 175 181 74 65 101 112 126 162 169 180 198 203 191 215 225 233 234 241 246 246 247 244 240 242 251 254 247 242 251 246 242 256 265 279 279 275 276 279
203 22 333 318 275 69 11 128 134 100 87 89 170 186 205 200 226 217 225 234 236 245 255 260 258 259 255 257 246 247 250 247 241 243 248 246 244 250 262 269 270 279 288 272
215 153 155 267 304 116 322 32 327 57 5 330 344 336 322 225 262 259 253 244 257 269 292 264 263 263 269 270 265 266 265 249 243 241 241 244 245 247 255 258 268 271 281 267